GW3756 Weather Reports


time (UTC)temp
C
wind
direction
speed
KPH
gust
KPH
rain 1hr
cm
rain 24hr
cm
rain mn
cm
humidity
%
barometer
mb
20260510143517 10 351 1.6 11.3 0.00 0.41 0.00 46 1015.9
20260510142516 10 312 1.6 3.2 0.00 0.41 0.00 48 1015.9
20260510141520 10 351 3.2 11.3 0.00 0.41 0.00 48 1015.8
20260510140515 10 325 3.2 12.9 0.00 0.41 0.00 42 1015.7
20260510135515 10 0 6.4 16.1 0.00 0.41 0.00 44 1015.6
20260510134517 10 332 1.6 4.8 0.00 0.41 0.00 43 1015.4
20260510133517 9 340 3.2 4.8 0.00 0.41 0.00 44 1015.4
20260510132516 9 316 1.6 6.4 0.00 0.41 0.00 45 1015.3
20260510131536 8 352 1.6 16.1 0.00 0.41 0.00 48 1015.2
20260510130516 8 322 1.6 3.2 0.00 0.41 0.00 49 1015.0
20260510125555 8 356 3.2 12.9 0.00 0.41 0.00 51 1014.9
20260510124515 8 329 1.6 4.8 0.00 0.41 0.00 55 1014.9
20260510123515 8 338 1.6 4.8 0.00 0.41 0.00 56 1014.9
20260510122537 7 337 1.6 4.8 0.00 0.41 0.00 60 1014.8
20260510121516 7 321 1.6 6.4 0.00 0.41 0.00 61 1014.8
20260510120516 7 337 1.6 6.4 0.00 0.41 0.00 66 1014.7
20260510115536 6 326 1.6 4.8 0.00 0.41 0.00 67 1014.5
20260510114515 6 328 1.6 3.2 0.00 0.41 0.00 68 1014.5
20260510113515 6 329 1.6 4.8 0.00 0.41 0.00 70 1014.4
20260510112517 5 326 0.0 3.2 0.00 0.41 0.00 72 1014.2
20260510111516 4 320 0.0 3.2 0.00 0.41 0.00 76 1013.9
20260510110516 4 312 0.0 1.6 0.00 0.41 0.00 80 1013.7
20260510105526 3 314 0.0 1.6 0.00 0.41 0.00 81 1013.6
20260510104517 3 323 0.0 1.6 0.00 0.41 0.00 84 1013.6
20260510103524 2 0.0 0.0 0.00 0.41 0.00 89 1013.5
20260510102516 2 0.0 0.0 0.00 0.41 0.00 91 1013.4
20260510101515 2 0.0 0.0 0.00 0.41 0.00 91 1013.1
20260510100517 2 0.0 0.0 0.00 0.41 0.00 92 1013.1
20260510095516 2 0.0 0.0 0.00 0.41 0.00 93 1012.9
20260510094516 2 0.0 0.0 0.00 0.41 0.00 92 1012.7
20260510093524 2 0.0 0.0 0.00 0.41 0.00 92 1012.5
20260510092537 2 0.0 0.0 0.00 0.41 0.00 92 1012.3
20260510091517 2 0.0 0.0 0.00 0.41 0.00 92 1012.2
20260510090546 2 0.0 0.0 0.00 0.41 0.00 92 1012.1
20260510085516 2 0.0 0.0 0.00 0.41 0.00 93 1011.8
20260510084528 1 0.0 0.0 0.00 0.41 0.00 92 1011.6
20260510083517 2 0.0 0.0 0.00 0.41 0.00 90 1011.5
20260510082516 2 0.0 0.0 0.00 0.41 0.00 89 1011.3
20260510081516 2 0.0 0.0 0.00 0.41 0.00 88 1011.2
20260510080516 3 0.0 0.0 0.00 0.41 0.00 87 1011.0
20260510075515 3 0.0 0.0 0.00 0.41 0.00 86 1010.9
20260510074537 3 0.0 0.0 0.00 0.41 0.00 84 1010.9
20260510073516 4 0.0 0.0 0.00 0.41 0.00 82 1010.8
20260510072516 5 0.0 0.0 0.00 0.41 0.00 80 1010.6
20260510071515 5 349 0.0 1.6 0.00 0.41 0.00 79 1010.6
20260510070530 5 340 0.0 1.6 0.00 0.41 0.00 79 1010.4
20260510065515 5 336 1.6 6.4 0.00 0.41 0.00 77 1010.4
20260510064517 5 344 1.6 3.2 0.00 0.41 0.00 77 1010.3
20260510063516 5 328 0.0 1.6 0.00 0.41 0.00 78 1010.3
20260510062536 5 13 1.6 6.4 0.00 0.41 0.00 80 1010.2
20260510061516 5 344 1.6 6.4 0.00 0.41 0.00 79 1010.1
20260510060516 6 357 1.6 4.8 0.00 0.41 0.00 78 1010.1
20260510055516 6 347 3.2 6.4 0.00 0.41 0.00 78 1009.9
20260510054515 6 357 1.6 4.8 0.00 0.41 0.00 78 1009.9
20260510053517 6 349 3.2 11.3 0.00 0.41 0.00 77 1009.9
20260510052517 6 12 3.2 9.7 0.00 0.41 0.00 77 1009.7
20260510051516 6 348 4.8 12.9 0.00 0.41 0.00 75 1009.6
20260510050516 6 1 6.4 16.1 0.00 0.41 0.00 74 1009.3
20260510045520 7 351 4.8 14.5 0.00 0.41 0.00 73 1009.2
20260510044517 7 359 3.2 11.3 0.00 0.41 0.00 72 1008.8
20260510043516 7 345 3.2 14.5 0.00 0.41 0.00 74 1008.7
20260510042516 7 358 1.6 11.3 0.00 0.41 0.00 78 1008.5
20260510041516 7 356 0.0 3.2 0.00 0.41 0.00 78 1008.1
20260510040515 7 354 1.6 3.2 0.00 0.41 0.00 78 1008.0
20260510035537 7 354 1.6 4.8 0.00 0.41 0.41 78 1007.9
20260510034517 7 358 1.6 4.8 0.00 0.41 0.41 78 1007.9
20260510033516 7 10 1.6 6.4 0.00 0.41 0.41 78 1007.8
20260510032516 8 2 1.6 6.4 0.00 0.41 0.41 77 1007.8
20260510031515 8 338 1.6 6.4 0.00 0.41 0.41 77 1007.3
20260510030525 8 350 0.0 4.8 0.00 0.41 0.41 77 1007.4
20260510025516 9 1 0.0 3.2 0.00 0.41 0.41 76 1007.0
20260510024521 9 344 1.6 4.8 0.00 0.41 0.41 76 1006.9
20260510023515 9 10 3.2 4.8 0.00 0.41 0.41 75 1006.8
20260510022517 9 349 3.2 11.3 0.00 0.41 0.41 75 1006.6
20260510021516 8 340 1.6 6.4 0.00 0.41 0.41 75 1006.4
20260510020516 8 356 1.6 9.7 0.00 0.41 0.41 76 1006.0
20260510015516 8 335 3.2 4.8 0.00 0.41 0.41 74 1005.8
20260510014515 10 2 1.6 6.4 0.00 0.41 0.41 72 1005.5
20260510013517 10 359 4.8 11.3 0.00 0.41 0.41 69 1005.2
20260510012536 11 20 4.8 12.9 0.00 0.41 0.41 67 1004.8
20260510011536 13 1 6.4 20.9 0.00 0.41 0.41 57 1004.6
20260510010521 16 351 4.8 11.3 0.00 0.41 0.41 44 1003.9
20260510005539 17 331 1.6 6.4 0.00 0.41 0.41 37 1003.4
20260510004517 17 0.0 0.0 0.00 0.41 0.41 37 1003.4
20260510003516 17 317 0.0 4.8 0.00 0.41 0.41 36 1003.2
20260510002516 17 292 3.2 16.1 0.00 0.41 0.41 35 1003.0
20260510001515 17 314 1.6 14.5 0.00 0.41 0.41 35 1002.9
20260510000517 17 295 4.8 16.1 0.00 0.41 0.41 35 1002.8
20260509235517 18 317 3.2 12.9 0.00 0.41 0.41 36 1002.8
20260509234516 18 299 3.2 11.3 0.00 0.41 0.41 38 1002.7
20260509233520 18 330 3.2 9.7 0.00 0.41 0.41 38 1002.3
20260509232515 19 314 3.2 11.3 0.00 0.41 0.41 38 1002.2
20260509231517 18 330 4.8 20.9 0.00 0.41 0.41 39 1002.0
20260509230536 18 315 4.8 11.3 0.00 0.41 0.41 39 1001.8
20260509225516 19 298 4.8 11.3 0.00 0.41 0.41 38 1001.4
20260509224515 20 301 4.8 12.9 0.00 0.41 0.41 37 1001.2
20260509223528 20 269 4.8 20.9 0.00 0.41 0.41 38 1001.2
20260509222516 20 263 4.8 17.7 0.00 0.41 0.41 38 1000.9
20260509221516 20 309 3.2 11.3 0.00 0.41 0.41 38 1000.6
20260509220516 20 306 6.4 17.7 0.00 0.41 0.41 38 1000.6
20260509215515 20 320 6.4 17.7 0.00 0.41 0.41 37 1000.6
20260509214529 20 302 9.7 30.6 0.00 0.41 0.41 36 1000.4
20260509213517 20 269 8.0 33.8 0.00 0.41 0.41 36 1000.1
20260509212517 20 246 9.7 27.4 0.00 0.41 0.41 36 1000.0
20260509211536 20 267 9.7 29.0 0.00 0.41 0.41 37 999.9
20260509210516 20 232 6.4 22.5 0.00 0.41 0.41 38 1000.0
20260509205515 20 251 6.4 27.4 0.00 0.41 0.41 40 999.9
20260509204534 20 293 9.7 25.7 0.00 0.41 0.41 41 1000.3
20260509203537 18 309 4.8 20.9 0.00 0.41 0.41 61 1000.3
20260509202541 18 254 3.2 9.7 0.00 0.41 0.41 65 1000.3
20260509201523 18 275 3.2 11.3 0.03 0.41 0.41 67 1000.6
20260509200536 17 255 4.8 11.3 0.05 0.41 0.41 70 1000.7
20260509195533 16 254 3.2 12.9 0.23 0.41 0.41 73 1000.7
20260509194515 15 272 3.2 11.3 0.30 0.41 0.41 79 1000.9
20260509193517 13 266 3.2 11.3 0.38 0.41 0.41 82 1001.1
20260509192517 12 251 3.2 14.5 0.41 0.41 0.41 84 1001.2
20260509191516 12 261 4.8 17.7 0.38 0.38 0.38 80 1001.5
20260509190536 13 286 4.8 17.7 0.36 0.36 0.36 78 1001.6
20260509185535 16 313 1.6 12.9 0.18 0.18 0.18 74 1000.9
20260509184517 16 215 9.7 27.4 0.10 0.10 0.10 70 999.9
20260509183517 17 202 8.0 24.1 0.03 0.03 0.03 66 1000.0
20260509182516 18 212 8.0 16.1 0.00 0.00 0.00 60 999.7
20260509181516 18 204 9.7 20.9 0.00 0.00 0.00 59 999.7
20260509180533 18 206 9.7 20.9 0.00 0.00 0.00 59 999.9
20260509175515 18 187 9.7 20.9 0.00 0.00 0.00 60 999.9
20260509174517 18 213 9.7 24.1 0.00 0.00 0.00 61 1000.1
20260509173516 18 175 11.3 25.7 0.00 0.00 0.00 61 1000.1
20260509172516 18 217 9.7 27.4 0.00 0.00 0.00 60 1000.3
20260509171519 17 203 8.0 20.9 0.00 0.00 0.00 64 1000.3
20260509170516 16 200 8.0 22.5 0.00 0.00 0.00 68 1000.7
20260509165533 16 208 6.4 20.9 0.00 0.00 0.00 70 1000.8
20260509164517 16 209 8.0 24.1 0.00 0.00 0.00 67 1001.1
20260509163529 17 191 9.7 24.1 0.00 0.00 0.00 64 1000.8
20260509162516 17 203 9.7 20.9 0.00 0.00 0.00 66 1001.0
20260509161516 17 202 8.0 16.1 0.00 0.00 0.00 69 1001.0
20260509160526 15 209 6.4 17.7 0.00 0.00 0.00 75 1001.2
20260509155517 15 199 4.8 17.7 0.00 0.00 0.00 76 1001.6
20260509154517 15 207 6.4 17.7 0.00 0.00 0.00 76 1001.4
20260509153556 14 187 6.4 22.5 0.00 0.00 0.00 79 1001.8
20260509152516 14 224 4.8 11.3 0.00 0.00 0.00 78 1002.4
20260509151516 13 197 4.8 12.9 0.00 0.00 0.00 80 1002.1
20260509150517 13 175 4.8 12.9 0.00 0.00 0.00 84 1002.3
20260509145517 12 246 3.2 9.7 0.00 0.00 0.00 85 1002.8
20260509144516 13 296 1.6 4.8 0.00 0.00 0.00 83 1003.9